Mackay Mo, Australia

7:58 AM AEST on December 12, 2017 (GMT +1000)
Mackay

Weather History for YBMK - November, 2013

Change the Weather History Date:

Saturday, November 9, 2013

  Actual Average Record
Temperature  
Mean Temperature 73 °F -  
Max Temperature 82 °F - - ()
Min Temperature 62 °F - - ()
Cooling Degree Days 8    
Growing Degree Days 23 (Base 50)    
Moisture  
Dew Point 59 °F    
Average Humidity 58    
Maximum Humidity 82    
Minimum Humidity 35    
Precipitation  
Precipitation 0.00 in - - ()
Sea Level Pressure  
Sea Level Pressure 29.93 in    
Wind  
Wind Speed 6 mph ()    
Max Wind Speed 13 mph    
Max Gust Speed -    
Visibility 7.4 miles    
Events      
T = Trace of Precipitation, MM = Missing Value Source: Averaged Metar Reports

Daily Weather History Graph

Daily Weather History Graph

Search for Another Location

Airport or City:

Trip Planner

Search our weather history database for the weather conditions in past years. The results will help you decide how hot, cold, wet, or windy it might be!

Date:

Astronomy

Nov. 09, 2013 Rise Set
Actual Time 5:16 AM AEST 6:17 PM AEST
Civil Twilight 4:52 AM AEST 6:41 PM AEST
Nautical Twilight 4:25 AM AEST 7:09 PM AEST
Astronomical Twilight 3:56 AM AEST 7:37 PM AEST
Moon 10:33 AM AEST (11/9) 11:45 PM AEST (11/9)
Length of Visible Light 13h 48m
Length of Day
13h 01m
Waxing Crescent, 37% of the Moon is Illuminated
Nov 9
Waxing Crescent
Nov 10
First Quarter
Nov 18
Full
Nov 26
Last Quarter
Dec 3
New

Hourly Weather History & Observations

Time (AEST) Temp. Heat Index Dew Point Humidity Pressure Visibility Wind Dir Wind Speed Gust Speed Precip Events Conditions
12:00 AM 73 °F - 58 °F 49% 29.94 in - NNE 3.5 mph - -  
12:00 AM 66.2 °F - 59.0 °F 78% 29.95 in 6.2 mi West 6.9 mph - N/A   Scattered Clouds
1:00 AM 72 °F - 58 °F 53% 29.93 in - NNE 2.3 mph - -  
1:00 AM 66.2 °F - 59.0 °F 78% 29.92 in 6.2 mi WSW 5.8 mph - N/A   Overcast
2:00 AM 66.2 °F - 59.0 °F 78% 29.92 in 6.2 mi West 5.8 mph - N/A   Overcast
3:00 AM 66 °F - 58 °F 70% 29.91 in - SW 5.8 mph - -  
3:00 AM 62.6 °F - 57.2 °F 82% 29.92 in 6.2 mi WSW 1.2 mph - N/A   Scattered Clouds
4:00 AM 65 °F - 58 °F 73% 29.92 in - SW 8.1 mph - -  
4:00 AM 62.6 °F - 57.2 °F 82% 29.92 in 6.2 mi West 5.8 mph - N/A   Mostly Cloudy
5:00 AM 62.6 °F - 57.2 °F 82% 29.95 in 6.2 mi WSW 5.8 mph - N/A   Overcast
6:00 AM 65 °F - 59 °F 74% 29.96 in 9 mi SW 6.9 mph - -   Haze
6:00 AM 64.4 °F - 57.2 °F 77% 29.98 in 6.2 mi WSW 5.8 mph - N/A   Unknown
7:00 AM 69 °F - 58 °F 59% 29.98 in - SW 6.9 mph - -  
7:00 AM 69.8 °F - 59.0 °F 68% 29.98 in 6.2 mi West 5.8 mph - N/A   Unknown
8:00 AM 77.0 °F - 59.0 °F 54% 29.98 in 6.2 mi WSW 4.6 mph - N/A   Unknown
9:00 AM 80 °F - 57 °F 35% 29.99 in 11 mi ENE 4.6 mph - -   Haze
9:00 AM 78.8 °F - 57.2 °F 47% 29.98 in 6.2 mi East 8.1 mph - N/A   Unknown
10:00 AM 80 °F - 59 °F 38% 29.98 in - East 4.6 mph - -  
10:00 AM 80.6 °F 81.1 °F 59.0 °F 48% 29.98 in 6.2 mi NE 9.2 mph - N/A   Unknown
11:00 AM 80.6 °F 81.1 °F 59.0 °F 48% 29.95 in 6.2 mi East 9.2 mph - N/A   Unknown
12:00 PM 81 °F - 59 °F 36% 29.95 in 19 mi East 8.1 mph - -   Partly Cloudy
12:00 PM 82.4 °F 82.9 °F 60.8 °F 48% 29.95 in 6.2 mi East 11.5 mph - N/A   Unknown
1:00 PM 80 °F - 58 °F 37% 29.93 in - East 10.4 mph - -  
1:00 PM 82.4 °F 83.4 °F 62.6 °F 51% 29.92 in 6.2 mi East 12.7 mph - N/A   Unknown
2:00 PM 80.6 °F 81.1 °F 59.0 °F 48% 29.89 in 6.2 mi East 12.7 mph - N/A   Unknown
3:00 PM 80 °F - 59 °F 38% 29.89 in 19 mi East 8.1 mph - -   Partly Cloudy
3:00 PM 80.6 °F 81.1 °F 59.0 °F 48% 29.89 in 6.2 mi East 10.4 mph - N/A   Unknown
4:00 PM 79 °F - 59 °F 39% 29.88 in - East 8.1 mph - -  
4:00 PM 80.6 °F 81.1 °F 59.0 °F 48% 29.86 in 6.2 mi East 10.4 mph - N/A   Unknown
5:00 PM 78.8 °F - 59.0 °F 51% 29.89 in 6.2 mi East 9.2 mph - N/A   Unknown
6:00 PM 76 °F - 58 °F 43% 29.91 in - East 5.8 mph - -  
7:00 PM 73 °F - 58 °F 51% 29.92 in - NE 4.6 mph - -  
7:00 PM 73.4 °F - 59.0 °F 61% 29.92 in 6.2 mi East 4.6 mph - N/A   Unknown
8:00 PM 73.4 °F - 59.0 °F 61% 29.92 in 6.2 mi NE 5.8 mph - N/A   Unknown
9:00 PM 72 °F - 59 °F 54% 29.94 in - NE 4.6 mph - -  
9:00 PM 73.4 °F - 59.0 °F 61% 29.92 in 6.2 mi NE 6.9 mph - N/A   Unknown
10:00 PM 71 °F - 60 °F 60% 29.94 in - NNE 4.6 mph - -  
10:00 PM 69.8 °F - 60.8 °F 73% 29.95 in 6.2 mi North 3.5 mph - N/A   Unknown
11:00 PM 62.6 °F - 57.2 °F 82% 29.92 in 5.0 mi SW 5.8 mph - N/A   Unknown